Total_Precipitation_Accumulation
0.01 0.01 0.00 0.00 0.00 0.00 0.00 0.00 0.00 0.00 0.00 0.00 0.07 0.17 0.10 0.09 0.01 0.01 0.05 0.10 0.10 0.04 0.02 0.01 0.06 0.20 0.18 0.06 0.11 0.18 0.33 0.37 0.17 0.15 0.32 0.45 0.47 0.49 0.49 0.73 0.19 0.08 0.08 0.25
0.01 0.01 0.01 0.00 0.01 0.02 0.00 0.00 0.00 0.00 0.00 0.00 0.00 0.00 0.00 0.01 0.00 0.02 0.02 0.07 0.05 0.03 0.02 0.04 0.03 0.05 0.07 0.03 0.05 0.18 0.23 0.51 0.25 0.18 0.52 0.56 0.65 0.56 0.46 0.36 0.47 0.30 0.20 0.33
0.02 0.02 0.01 0.01 0.03 0.01 0.00 0.00 0.00 0.00 0.00 0.00 0.00 0.00 0.00 0.00 0.00 0.02 0.01 0.00 0.01 0.02 0.01 0.04 0.03 0.02 0.00 0.00 0.01 0.05 0.06 0.21 0.41 0.34 0.52 0.58 0.49 0.48 0.50 0.44 0.56 0.51 0.44 0.23
0.02 0.02 0.02 0.02 0.03 0.01 0.00 0.00 0.00 0.00 0.00 0.00 0.00 0.00 0.00 0.00 0.03 0.02 0.00 0.00 0.04 0.04 0.03 0.02 0.02 0.01 0.00 0.00 0.01 0.00 0.04 0.07 0.05 0.05 0.06 0.26 0.33 0.47 0.48 0.63 0.66 0.56 0.63 0.34
0.04 0.04 0.02 0.03 0.04 0.02 0.00 0.00 0.00 0.01 0.00 0.00 0.00 0.00 0.00 0.02 0.04 0.01 0.01 0.03 0.03 0.04 0.03 0.04 0.01 0.01 0.01 0.00 0.00 0.00 0.01 0.06 0.03 0.00 0.01 0.05 0.19 0.25 0.37 0.46 0.59 0.63 0.66 0.65
0.05 0.03 0.05 0.05 0.08 0.05 0.02 0.01 0.02 0.14 0.03 0.00 0.00 0.01 0.02 0.02 0.04 0.03 0.03 0.03 0.02 0.02 0.03 0.01 0.00 0.00 0.00 0.00 0.00 0.00 0.00 0.01 0.04 0.02 0.01 0.02 0.14 0.23 0.25 0.44 0.51 0.48 0.62 0.69
0.05 0.07 0.08 0.08 0.07 0.13 0.07 0.07 0.13 0.21 0.06 0.00 0.01 0.00 0.01 0.01 0.02 0.06 0.02 0.07 0.11 0.06 0.00 0.00 0.00 0.00 0.00 0.00 0.00 0.00 0.00 0.01 0.04 0.04 0.01 0.05 0.12 0.12 0.13 0.30 0.39 0.39 0.39 0.40
0.06 0.06 0.08 0.06 0.08 0.20 0.15 0.11 0.17 0.26 0.16 0.00 0.00 0.01 0.03 0.03 0.03 0.05 0.06 0.05 0.03 0.00 0.00 0.00 0.00 0.00 0.01 0.02 0.02 0.01 0.00 0.03 0.04 0.04 0.05 0.10 0.13 0.08 0.09 0.17 0.24 0.27 0.26 0.22
0.08 0.08 0.09 0.08 0.11 0.15 0.19 0.06 0.15 0.33 0.32 0.04 0.02 0.04 0.01 0.04 0.04 0.01 0.00 0.00 0.00 0.00 0.00 0.01 0.02 0.02 0.03 0.09 0.10 0.03 0.00 0.02 0.09 0.07 0.07 0.11 0.08 0.06 0.09 0.16 0.16 0.15 0.17 0.16
0.09 0.10 0.09 0.10 0.12 0.15 0.20 0.10 0.12 0.39 0.35 0.03 0.05 0.18 0.24 0.16 0.11 0.06 0.02 0.01 0.00 0.00 0.00 0.01 0.03 0.05 0.05 0.05 0.02 0.01 0.01 0.11 0.21 0.11 0.28 0.13 0.08 0.05 0.11 0.17 0.17 0.08 0.13 0.18
0.11 0.10 0.09 0.10 0.10 0.16 0.20 0.10 0.10 0.28 0.28 0.06 0.05 0.15 0.18 0.17 0.08 0.08 0.06 0.03 0.04 0.02 0.02 0.02 0.03 0.02 0.03 0.02 0.01 0.01 0.00 0.02 0.04 0.06 0.09 0.10 0.04 0.02 0.12 0.18 0.12 0.09 0.08 0.10
0.09 0.09 0.09 0.11 0.11 0.17 0.20 0.14 0.05 0.20 0.41 0.15 0.06 0.05 0.05 0.08 0.09 0.08 0.05 0.05 0.04 0.03 0.05 0.06 0.03 0.03 0.04 0.06 0.04 0.01 0.01 0.02 0.02 0.03 0.06 0.13 0.09 0.09 0.14 0.11 0.10 0.08 0.08 0.05
0.09 0.09 0.12 0.14 0.13 0.17 0.25 0.16 0.19 0.35 0.43 0.18 0.07 0.03 0.01 0.00 0.03 0.08 0.14 0.10 0.06 0.03 0.04 0.04 0.08 0.11 0.05 0.05 0.05 0.03 0.01 0.02 0.02 0.03 0.05 0.05 0.06 0.02 0.02 0.02 0.04 0.03 0.03 0.02
0.09 0.10 0.12 0.13 0.11 0.15 0.17 0.05 0.04 0.07 0.07 0.04 0.06 0.02 0.01 0.00 0.00 0.00 0.01 0.01 0.00 0.01 0.02 0.06 0.07 0.09 0.03 0.02 0.03 0.03 0.03 0.02 0.03 0.04 0.04 0.06 0.05 0.02 0.02 0.00 0.00 0.00 0.00 0.00
0.10 0.12 0.12 0.10 0.14 0.11 0.12 0.21 0.30 0.33 0.17 0.09 0.10 0.04 0.01 0.00 0.03 0.05 0.05 0.05 0.04 0.04 0.07 0.10 0.12 0.09 0.08 0.05 0.04 0.04 0.03 0.04 0.04 0.05 0.05 0.05 0.04 0.03 0.02 0.01 0.01 0.02 0.02 0.01
0.09 0.13 0.13 0.12 0.14 0.15 0.10 0.11 0.04 0.03 0.01 0.06 0.11 0.09 0.03 0.01 0.05 0.02 0.01 0.01 0.00 0.01 0.02 0.07 0.07 0.10 0.12 0.06 0.03 0.06 0.08 0.06 0.05 0.04 0.04 0.04 0.03 0.03 0.01 0.01 0.01 0.03 0.02 0.01
0.10 0.15 0.11 0.07 0.12 0.08 0.11 0.15 0.17 0.10 0.04 0.07 0.10 0.14 0.01 0.01 0.11 0.07 0.00 0.00 0.00 0.00 0.02 0.04 0.05 0.04 0.03 0.02 0.03 0.05 0.05 0.07 0.06 0.04 0.01 0.03 0.01 0.02 0.01 0.01 0.00 0.01 0.00 0.00
0.12 0.05 0.04 0.07 0.15 0.16 0.25 0.47 0.36 0.13 0.05 0.03 0.09 0.07 0.00 0.00 0.01 0.14 0.03 0.00 0.00 0.00 0.01 0.02 0.01 0.01 0.00 0.03 0.05 0.04 0.03 0.04 0.03 0.01 0.02 0.03 0.02 0.01 0.00 0.00 0.00 0.00 0.00 0.00
0.02 0.00 0.04 0.01 0.01 0.05 0.04 0.01 0.00 0.00 0.04 0.06 0.03 0.06 0.05 0.00 0.00 0.03 0.12 0.03 0.01 0.00 0.01 0.02 0.01 0.01 0.03 0.05 0.04 0.03 0.03 0.04 0.03 0.01 0.01 0.00 0.01 0.01 0.01 0.00 0.00 0.01 0.01 0.01
0.00 0.00 0.00 0.00 0.00 0.02 0.02 0.00 0.00 0.00 0.00 0.01 0.04 0.01 0.01 0.00 0.00 0.07 0.13 0.09 0.04 0.02 0.02 0.00 0.00 0.03 0.05 0.05 0.05 0.04 0.04 0.04 0.03 0.02 0.02 0.02 0.01 0.01 0.01 0.01 0.01 0.02 0.02 0.01
0.00 0.00 0.00 0.00 0.00 0.00 0.00 0.00 0.00 0.00 0.01 0.01 0.02 0.00 0.00 0.00 0.03 0.08 0.10 0.12 0.08 0.03 0.05 0.02 0.01 0.04 0.05 0.05 0.03 0.03 0.03 0.03 0.03 0.03 0.03 0.02 0.03 0.03 0.01 0.01 0.01 0.01 0.01 0.01
0.00 0.00 0.00 0.00 0.00 0.00 0.00 0.00 0.01 0.02 0.04 0.03 0.01 0.00 0.00 0.01 0.07 0.13 0.09 0.13 0.07 0.05 0.03 0.01 0.02 0.06 0.05 0.04 0.04 0.03 0.02 0.01 0.00 0.00 0.00 0.00 0.01 0.00 0.00 0.01 0.01 0.00 0.01 0.01
0.00 0.00 0.00 0.00 0.00 0.00 0.01 0.02 0.02 0.03 0.04 0.03 0.02 0.02 0.02 0.06 0.08 0.09 0.06 0.06 0.08 0.05 0.01 0.02 0.06 0.06 0.03 0.03 0.02 0.01 0.01 0.01 0.00 0.00 0.00 0.00 0.00 0.00 0.00 0.01 0.00 0.00 0.00 0.00
0.00 0.00 0.00 0.00 0.01 0.04 0.07 0.06 0.06 0.06 0.05 0.02 0.03 0.05 0.06 0.05 0.05 0.07 0.06 0.07 0.04 0.02 0.02 0.05 0.06 0.04 0.02 0.02 0.01 0.01 0.01 0.01 0.01 0.00 0.00 0.00 0.01 0.00 0.00 0.00 0.00 0.01 0.00 0.00
0.00 0.00 0.02 0.04 0.07 0.04 0.03 0.01 0.01 0.02 0.01 0.03 0.04 0.07 0.03 0.03 0.04 0.04 0.05 0.03 0.03 0.03 0.06 0.08 0.06 0.03 0.02 0.01 0.01 0.01 0.01 0.01 0.01 0.01 0.01 0.01 0.01 0.01 0.00 0.00 0.00 0.00 0.00 0.00
0.00 0.01 0.03 0.05 0.03 0.01 0.00 0.00 0.00 0.00 0.01 0.03 0.05 0.02 0.01 0.03 0.03 0.03 0.05 0.04 0.05 0.08 0.09 0.07 0.04 0.03 0.02 0.01 0.01 0.01 0.02 0.02 0.01 0.01 0.01 0.01 0.02 0.00 0.00 0.00 0.00 0.00 0.00 0.00
0.00 0.02 0.03 0.03 0.02 0.01 0.00 0.00 0.00 0.00 0.01 0.01 0.00 0.01 0.04 0.03 0.02 0.04 0.05 0.08 0.09 0.08 0.05 0.03 0.06 0.05 0.03 0.02 0.01 0.01 0.02 0.01 0.01 0.01 0.01 0.02 0.01 0.00 0.00 0.00 0.00 0.00 0.00 0.00